Terminal Aerodrome Forecast
Issued by NWS Portland, OR

Home | Current Version | Previous Version | Text Only | Print | Product List | Glossary On
Versions: 1 2 3 4 5 6 7 8 9 10 11 12 13 14 15 16 17 18 19 20 21 22 23 24 25 26 27 28 29 30
124
FTUS46 KPQR 052337
TAFTTD
TAF
KTTD 052337Z 0600/0624 10010KT 6SM -RA SCT040 OVC080
     FM060200 21005KT P6SM -RA BKN025 OVC040
     FM060400 24003KT P6SM -SHRA SCT025 BKN040
     FM061700 VRB03KT P6SM BKN025
     FM061900 VRB03KT P6SM SCT025=

USA.gov is the U.S. government's official web portal to all federal, state and local government web resources and services.